| time (UTC) | temp F | wind direction | speed knots | gust knots | rain 1hr in | rain 24hr in | rain mn in | humidity % | barometer mb |
| 20260506002105 | 59 | 218 | 1.7 | 4.3 | 0.00 | 0.00 | 0.00 | 52 | 826.7 |
| 20260506001606 | 59 | 247 | 2.6 | 4.3 | 0.00 | 0.00 | 0.00 | 50 | 826.6 |
| 20260506001105 | 59 | 110 | 1.7 | 4.3 | 0.00 | 0.00 | 0.00 | 52 | 826.4 |
| 20260506000105 | 60 | 123 | 0.9 | 5.2 | 0.00 | 0.00 | 0.00 | 51 | 826.6 |
| 20260505235605 | 60 | 315 | 2.6 | 4.3 | 0.00 | 0.00 | 0.00 | 54 | 826.7 |
| 20260505235106 | 60 | 293 | 1.7 | 2.6 | 0.00 | 0.00 | 0.00 | 50 | 826.6 |
| 20260505234605 | 60 | 163 | 1.7 | 5.2 | 0.00 | 0.00 | 0.00 | 50 | 826.6 |
| 20260505233605 | 60 | 144 | 1.7 | 4.3 | 0.00 | 0.00 | 0.00 | 53 | 826.5 |
| 20260505233105 | 59 | 89 | 0.9 | 4.3 | 0.00 | 0.00 | 0.00 | 54 | 826.6 |
| 20260505232605 | 59 | 139 | 1.7 | 4.3 | 0.00 | 0.00 | 0.00 | 55 | 826.6 |
| 20260505232105 | 59 | 129 | 2.6 | 6.1 | 0.00 | 0.00 | 0.00 | 57 | 826.8 |
| 20260505231605 | 59 | 119 | 4.3 | 6.1 | 0.00 | 0.00 | 0.00 | 56 | 826.9 |
| 20260505231105 | 59 | 63 | 0.9 | 2.6 | 0.00 | 0.00 | 0.00 | 59 | 827.1 |
| 20260505230605 | 59 | 182 | 1.7 | 4.3 | 0.00 | 0.00 | 0.00 | 59 | 827.1 |
| 20260505225605 | 59 | 88 | 0.9 | 6.1 | 0.00 | 0.00 | 0.00 | 61 | 826.9 |
| 20260505225105 | 59 | 24 | 4.3 | 6.1 | 0.00 | 0.00 | 0.00 | 59 | 826.9 |
| 20260505224605 | 58 | 127 | 1.7 | 5.2 | 0.00 | 0.00 | 0.00 | 63 | 827.0 |
| 20260505224105 | 58 | 8 | 2.6 | 6.1 | 0.00 | 0.00 | 0.00 | 60 | 827.0 |
| 20260505223605 | 57 | 33 | 0.9 | 4.3 | 0.00 | 0.00 | 0.00 | 61 | 827.0 |
| 20260505223105 | 57 | 156 | 1.7 | 4.3 | 0.00 | 0.00 | 0.00 | 62 | 827.1 |
| 20260505222606 | 56 | 25 | 0.9 | 5.2 | 0.00 | 0.00 | 0.00 | 67 | 827.2 |
| 20260505222105 | 55 | 16 | 1.7 | 4.3 | 0.00 | 0.00 | 0.00 | 68 | 827.5 |
| 20260505221606 | 55 | 36 | 0.9 | 5.2 | 0.00 | 0.00 | 0.00 | 74 | 827.5 |
| 20260505221105 | 54 | 332 | 3.5 | 7.8 | 0.00 | 0.00 | 0.00 | 77 | 827.7 |
| 20260505220106 | 54 | 238 | 3.5 | 8.7 | 0.00 | 0.00 | 0.00 | 76 | 828.0 |
| 20260505215105 | 56 | 202 | 6.1 | 12.2 | 0.00 | 0.00 | 0.00 | 68 | 828.0 |
| 20260505213605 | 60 | 246 | 5.2 | 7.0 | 0.00 | 0.00 | 0.00 | 51 | 827.6 |
| 20260505213105 | 60 | 265 | 4.3 | 7.8 | 0.00 | 0.00 | 0.00 | 50 | 827.6 |
| 20260505212605 | 60 | 272 | 3.5 | 7.0 | 0.00 | 0.00 | 0.00 | 49 | 827.5 |
| 20260505212105 | 60 | 9 | 4.3 | 7.8 | 0.00 | 0.00 | 0.00 | 50 | 827.5 |
| 20260505211105 | 60 | 202 | 4.3 | 8.7 | 0.00 | 0.00 | 0.00 | 51 | 827.6 |
| 20260505210605 | 60 | 323 | 2.6 | 6.1 | 0.00 | 0.00 | 0.00 | 51 | 827.6 |
| 20260505210105 | 61 | 356 | 1.7 | 6.1 | 0.00 | 0.00 | 0.00 | 51 | 827.6 |
| 20260505205605 | 61 | 309 | 2.6 | 7.8 | 0.00 | 0.00 | 0.00 | 51 | 827.6 |
| 20260505205105 | 61 | 297 | 2.6 | 6.1 | 0.00 | 0.00 | 0.00 | 51 | 827.6 |
| 20260505204106 | 61 | 26 | 1.7 | 4.3 | 0.00 | 0.00 | 0.00 | 52 | 827.7 |
| 20260505203605 | 61 | 268 | 4.3 | 7.8 | 0.00 | 0.00 | 0.00 | 52 | 827.8 |
| 20260505203105 | 60 | 266 | 2.6 | 7.8 | 0.00 | 0.00 | 0.00 | 53 | 827.9 |
| 20260505202605 | 60 | 118 | 2.6 | 6.1 | 0.00 | 0.00 | 0.00 | 52 | 827.9 |
| 20260505202105 | 60 | 185 | 0.9 | 7.8 | 0.00 | 0.00 | 0.00 | 54 | 827.8 |
| 20260505201605 | 60 | 333 | 4.3 | 7.8 | 0.00 | 0.00 | 0.00 | 53 | 827.8 |
| 20260505201105 | 60 | 295 | 2.6 | 7.8 | 0.00 | 0.00 | 0.00 | 53 | 827.8 |
| 20260505200604 | 59 | 19 | 3.5 | 7.0 | 0.00 | 0.00 | 0.00 | 55 | 827.9 |
| 20260505200105 | 58 | 315 | 2.6 | 7.0 | 0.00 | 0.00 | 0.00 | 56 | 828.0 |
| 20260505195605 | 57 | 301 | 3.5 | 6.1 | 0.00 | 0.00 | 0.00 | 61 | 828.0 |
| 20260505195105 | 57 | 316 | 3.5 | 7.0 | 0.00 | 0.00 | 0.00 | 59 | 828.2 |
| 20260505194605 | 57 | 344 | 2.6 | 8.7 | 0.00 | 0.00 | 0.00 | 59 | 828.3 |
| 20260505194105 | 57 | 264 | 3.5 | 8.7 | 0.00 | 0.00 | 0.00 | 63 | 828.3 |
| 20260505193605 | 57 | 276 | 5.2 | 11.3 | 0.00 | 0.00 | 0.00 | 63 | 828.3 |
| 20260505193105 | 57 | 244 | 3.5 | 7.8 | 0.00 | 0.00 | 0.00 | 60 | 828.3 |
| 20260505192605 | 57 | 323 | 1.7 | 8.7 | 0.00 | 0.00 | 0.00 | 64 | 828.4 |
| 20260505192105 | 57 | 260 | 4.3 | 11.3 | 0.00 | 0.00 | 0.00 | 66 | 828.4 |
| 20260505191605 | 57 | 299 | 4.3 | 7.8 | 0.00 | 0.00 | 0.00 | 67 | 828.5 |
| 20260505191105 | 56 | 294 | 4.3 | 8.7 | 0.00 | 0.00 | 0.00 | 70 | 828.5 |
| 20260505190605 | 55 | 298 | 4.3 | 10.4 | 0.00 | 0.00 | 0.00 | 71 | 828.5 |
| 20260505185104 | 54 | 296 | 4.3 | 7.8 | 0.00 | 0.00 | 0.00 | 73 | 828.6 |
| 20260505184605 | 55 | 295 | 2.6 | 7.8 | 0.00 | 0.00 | 0.00 | 71 | 828.7 |
| 20260505183606 | 56 | 276 | 4.3 | 11.3 | 0.00 | 0.00 | 0.00 | 61 | 828.5 |
| 20260505182105 | 58 | 246 | 4.3 | 7.0 | 0.00 | 0.00 | 0.00 | 53 | 828.4 |
| 20260505181605 | 59 | 277 | 5.2 | 8.7 | 0.00 | 0.00 | 0.00 | 52 | 828.4 |
| 20260505181104 | 59 | 272 | 5.2 | 10.4 | 0.00 | 0.00 | 0.00 | 48 | 828.3 |
| 20260505175605 | 60 | 189 | 2.6 | 6.1 | 0.00 | 0.00 | 0.00 | 46 | 828.2 |
| 20260505175104 | 60 | 218 | 2.6 | 10.4 | 0.00 | 0.00 | 0.00 | 47 | 828.2 |
| 20260505174104 | 59 | 132 | 2.6 | 5.2 | 0.00 | 0.00 | 0.00 | 47 | 828.2 |
| 20260505173605 | 58 | 171 | 2.6 | 6.1 | 0.00 | 0.00 | 0.00 | 47 | 828.2 |
| 20260505172605 | 58 | 48 | 2.6 | 6.1 | 0.00 | 0.00 | 0.00 | 47 | 828.2 |
| 20260505171605 | 58 | 239 | 2.6 | 7.0 | 0.00 | 0.00 | 0.00 | 49 | 828.3 |
| 20260505171104 | 58 | 324 | 0.9 | 5.2 | 0.00 | 0.00 | 0.00 | 49 | 828.3 |
| 20260505170604 | 57 | 38 | 1.7 | 6.1 | 0.00 | 0.00 | 0.00 | 50 | 828.4 |
| 20260505165605 | 56 | 283 | 1.7 | 7.8 | 0.00 | 0.00 | 0.00 | 51 | 828.6 |
| 20260505165105 | 56 | 333 | 5.2 | 8.7 | 0.00 | 0.00 | 0.00 | 52 | 828.6 |
| 20260505164605 | 56 | 6 | 4.3 | 8.7 | 0.00 | 0.00 | 0.00 | 52 | 828.4 |
| 20260505164105 | 55 | 9 | 2.6 | 7.8 | 0.00 | 0.00 | 0.00 | 54 | 828.4 |
| 20260505163605 | 55 | 6 | 4.3 | 7.8 | 0.00 | 0.00 | 0.00 | 54 | 828.6 |
| 20260505162605 | 55 | 10 | 4.3 | 7.8 | 0.00 | 0.00 | 0.00 | 56 | 828.5 |
| 20260505162105 | 54 | 9 | 2.6 | 6.1 | 0.00 | 0.00 | 0.00 | 57 | 828.6 |
| 20260505161605 | 54 | 345 | 4.3 | 7.8 | 0.00 | 0.00 | 0.00 | 59 | 828.8 |
| 20260505160604 | 54 | 12 | 4.3 | 7.8 | 0.00 | 0.00 | 0.00 | 60 | 828.9 |
| 20260505153105 | 54 | 330 | 5.2 | 8.7 | 0.00 | 0.00 | 0.00 | 61 | 829.0 |
| 20260505152604 | 54 | 336 | 5.2 | 8.7 | 0.00 | 0.00 | 0.00 | 61 | 829.1 |
| 20260505152104 | 54 | 346 | 5.2 | 7.0 | 0.00 | 0.00 | 0.00 | 62 | 829.1 |
| 20260505150605 | 54 | 18 | 2.6 | 6.1 | 0.00 | 0.00 | 0.00 | 64 | 829.1 |
| 20260505150104 | 53 | 4 | 4.3 | 7.0 | 0.00 | 0.00 | 0.00 | 63 | 829.2 |
| 20260505140105 | 57 | 8 | 7.0 | 12.2 | 0.00 | 0.00 | 0.00 | 51 | 829.3 |
| 20260505130104 | 58 | 320 | 1.7 | 2.6 | 0.00 | 0.00 | 0.00 | 45 | 828.5 |
| 20260505124605 | 58 | 300 | 1.7 | 2.6 | 0.00 | 0.00 | 0.00 | 44 | 828.2 |
| 20260505124104 | 58 | 299 | 1.7 | 4.3 | 0.00 | 0.00 | 0.00 | 43 | 828.4 |
| 20260505123105 | 58 | 317 | 1.7 | 2.6 | 0.00 | 0.00 | 0.00 | 43 | 828.4 |
| 20260505122605 | 58 | 310 | 0.9 | 2.6 | 0.00 | 0.00 | 0.00 | 43 | 828.4 |
| 20260505121605 | 58 | 293 | 0.9 | 7.0 | 0.00 | 0.00 | 0.00 | 42 | 828.5 |
| 20260505121104 | 58 | 279 | 3.5 | 7.0 | 0.00 | 0.00 | 0.00 | 42 | 828.5 |
| 20260505115605 | 58 | 22 | 1.7 | 1.7 | 0.00 | 0.00 | 0.00 | 40 | 828.3 |
| 20260505115105 | 58 | 44 | 0.9 | 1.7 | 0.00 | 0.00 | 0.00 | 39 | 828.3 |
| 20260505114605 | 58 | 64 | 0.9 | 0.9 | 0.00 | 0.00 | 0.00 | 40 | 828.3 |
| 20260505114104 | 58 | 121 | 0.0 | 1.7 | 0.00 | 0.00 | 0.00 | 40 | 828.1 |
| 20260505113605 | 58 | 74 | 1.7 | 1.7 | 0.00 | 0.00 | 0.00 | 39 | 828.1 |
| 20260505113105 | 58 | 86 | 0.0 | 1.7 | 0.00 | 0.00 | 0.00 | 38 | 828.2 |
| 20260505112104 | 58 | 45 | 0.9 | 1.7 | 0.00 | 0.00 | 0.00 | 37 | 828.1 |
| 20260505111604 | 59 | 31 | 0.9 | 1.7 | 0.00 | 0.00 | 0.00 | 37 | 828.1 |
| 20260505111105 | 59 | 6 | 0.9 | 2.6 | 0.00 | 0.00 | 0.00 | 37 | 828.2 |
| 20260505110604 | 59 | 289 | 0.9 | 2.6 | 0.00 | 0.00 | 0.00 | 36 | 828.3 |
| 20260505102104 | 59 | 265 | 3.5 | 7.0 | 0.00 | 0.00 | 0.00 | 34 | 828.4 |
| 20260505101604 | 59 | 263 | 4.3 | 7.0 | 0.00 | 0.00 | 0.00 | 34 | 828.3 |
| 20260505101104 | 59 | 265 | 2.6 | 2.6 | 0.00 | 0.00 | 0.00 | 35 | 828.1 |
| 20260505100604 | 59 | 254 | 1.7 | 2.6 | 0.00 | 0.00 | 0.00 | 34 | 828.1 |
| 20260505100104 | 59 | 263 | 1.7 | 2.6 | 0.00 | 0.00 | 0.00 | 35 | 828.1 |
| 20260505095604 | 59 | 257 | 0.0 | 0.9 | 0.00 | 0.00 | 0.00 | 35 | 828.1 |
| 20260505095105 | 60 | 350 | 0.9 | 1.7 | 0.00 | 0.00 | 0.00 | 34 | 828.2 |
| 20260505094605 | 60 | 356 | 0.9 | 2.6 | 0.00 | 0.00 | 0.00 | 34 | 828.2 |
| 20260505094104 | 60 | 5 | 1.7 | 2.6 | 0.00 | 0.00 | 0.00 | 34 | 828.1 |
| 20260505093604 | 60 | 23 | 1.7 | 2.6 | 0.00 | 0.00 | 0.00 | 34 | 828.1 |
| 20260505093104 | 60 | 28 | 1.7 | 2.6 | 0.00 | 0.00 | 0.00 | 33 | 828.0 |
| 20260505092605 | 60 | 354 | 0.9 | 2.6 | 0.00 | 0.00 | 0.00 | 33 | 828.0 |
| 20260505092105 | 60 | 296 | 1.7 | 4.3 | 0.00 | 0.00 | 0.00 | 33 | 828.2 |
| 20260505091604 | 60 | 268 | 2.6 | 5.2 | 0.00 | 0.00 | 0.00 | 33 | 828.1 |
| 20260505091104 | 60 | 243 | 2.6 | 5.2 | 0.00 | 0.00 | 0.00 | 33 | 828.2 |
| 20260505090604 | 60 | 259 | 2.6 | 4.3 | 0.00 | 0.00 | 0.00 | 33 | 828.4 |
| 20260505090104 | 61 | 272 | 1.7 | 2.6 | 0.00 | 0.00 | 0.00 | 33 | 828.5 |
| 20260505085604 | 61 | 274 | 1.7 | 2.6 | 0.00 | 0.00 | 0.00 | 32 | 828.5 |
| 20260505085104 | 61 | 268 | 0.9 | 1.7 | 0.00 | 0.00 | 0.00 | 33 | 828.5 |
| 20260505084604 | 61 | 294 | 0.9 | 2.6 | 0.00 | 0.00 | 0.00 | 32 | 828.5 |
| 20260505084104 | 61 | 284 | 1.7 | 2.6 | 0.00 | 0.00 | 0.00 | 32 | 828.6 |
| 20260505083104 | 61 | 299 | 3.5 | 6.1 | 0.00 | 0.00 | 0.00 | 32 | 828.8 |
| 20260505082604 | 62 | 313 | 1.7 | 4.3 | 0.00 | 0.00 | 0.00 | 32 | 828.8 |
| 20260505082104 | 62 | 277 | 2.6 | 6.1 | 0.00 | 0.00 | 0.00 | 31 | 828.7 |
| 20260505081604 | 62 | 298 | 2.6 | 5.2 | 0.00 | 0.00 | 0.00 | 31 | 828.7 |
| 20260505081104 | 62 | 283 | 3.5 | 7.0 | 0.00 | 0.00 | 0.00 | 31 | 828.6 |
| 20260505080604 | 62 | 270 | 4.3 | 8.7 | 0.00 | 0.00 | 0.00 | 31 | 828.6 |
| 20260505080104 | 62 | 271 | 2.6 | 6.1 | 0.00 | 0.00 | 0.00 | 31 | 828.6 |
| 20260505075604 | 62 | 272 | 4.3 | 7.8 | 0.00 | 0.00 | 0.00 | 31 | 828.8 |
| 20260505075104 | 63 | 317 | 5.2 | 10.4 | 0.00 | 0.00 | 0.00 | 31 | 828.8 |
| 20260505074605 | 63 | 268 | 6.1 | 14.8 | 0.00 | 0.00 | 0.00 | 31 | 828.6 |
| 20260505074104 | 63 | 255 | 7.8 | 15.6 | 0.00 | 0.00 | 0.00 | 30 | 828.6 |
| 20260505073604 | 63 | 243 | 9.6 | 17.4 | 0.00 | 0.00 | 0.00 | 30 | 828.5 |
| 20260505073104 | 63 | 249 | 7.8 | 18.2 | 0.00 | 0.00 | 0.00 | 30 | 828.6 |
| 20260505072604 | 63 | 245 | 8.7 | 17.4 | 0.00 | 0.00 | 0.00 | 30 | 828.6 |
| 20260505072104 | 63 | 258 | 7.8 | 17.4 | 0.00 | 0.00 | 0.00 | 30 | 828.5 |
| 20260505071604 | 64 | 266 | 7.8 | 17.4 | 0.00 | 0.00 | 0.00 | 30 | 828.5 |
| 20260505071105 | 64 | 256 | 7.8 | 19.1 | 0.00 | 0.00 | 0.00 | 29 | 828.5 |
| 20260505065604 | 64 | 255 | 5.2 | 18.2 | 0.00 | 0.00 | 0.00 | 28 | 828.2 |
| 20260505065104 | 64 | 254 | 7.8 | 14.8 | 0.00 | 0.00 | 0.00 | 28 | 828.2 |
| 20260505064604 | 64 | 271 | 5.2 | 12.2 | 0.00 | 0.00 | 0.00 | 28 | 828.2 |
| 20260505064104 | 65 | 274 | 4.3 | 11.3 | 0.00 | 0.00 | 0.00 | 27 | 828.2 |
| 20260505063604 | 65 | 252 | 4.3 | 10.4 | 0.00 | 0.00 | 0.00 | 27 | 828.2 |
| 20260505063104 | 65 | 249 | 5.2 | 10.4 | 0.00 | 0.00 | 0.00 | 27 | 828.0 |
| 20260505062604 | 65 | 250 | 6.1 | 11.3 | 0.00 | 0.00 | 0.00 | 27 | 828.1 |
| 20260505062104 | 65 | 262 | 4.3 | 10.4 | 0.00 | 0.00 | 0.00 | 26 | 828.2 |
| 20260505061105 | 65 | 247 | 5.2 | 8.7 | 0.00 | 0.00 | 0.00 | 26 | 828.3 |
| 20260505060104 | 66 | 244 | 5.2 | 10.4 | 0.00 | 0.00 | 0.00 | 25 | 828.3 |
| 20260505055104 | 66 | 260 | 6.1 | 7.8 | 0.00 | 0.00 | 0.00 | 25 | 828.3 |
| 20260505054104 | 66 | 263 | 4.3 | 8.7 | 0.00 | 0.00 | 0.00 | 24 | 828.2 |
| 20260505053604 | 66 | 262 | 5.2 | 7.8 | 0.00 | 0.00 | 0.00 | 24 | 828.1 |
| 20260505053104 | 67 | 270 | 4.3 | 7.0 | 0.00 | 0.00 | 0.00 | 24 | 828.0 |
| 20260505052603 | 67 | 271 | 4.3 | 7.8 | 0.00 | 0.00 | 0.00 | 24 | 828.0 |
| 20260505052104 | 67 | 275 | 4.3 | 11.3 | 0.00 | 0.00 | 0.00 | 24 | 828.0 |
| 20260505051604 | 67 | 279 | 4.3 | 7.8 | 0.00 | 0.00 | 0.00 | 24 | 828.0 |
| 20260505051104 | 67 | 269 | 1.7 | 7.0 | 0.00 | 0.00 | 0.00 | 24 | 828.0 |
| 20260505050604 | 67 | 271 | 2.6 | 7.0 | 0.00 | 0.00 | 0.00 | 24 | 828.0 |
| 20260505050104 | 67 | 295 | 1.7 | 7.0 | 0.00 | 0.00 | 0.00 | 23 | 828.0 |
| 20260505041104 | 68 | 288 | 0.9 | 4.3 | 0.00 | 0.00 | 0.00 | 24 | 828.0 |
| 20260505040604 | 68 | 290 | 0.9 | 4.3 | 0.00 | 0.00 | 0.00 | 23 | 827.9 |
| 20260505040104 | 68 | 302 | 1.7 | 7.8 | 0.00 | 0.00 | 0.00 | 23 | 827.9 |
| 20260505035104 | 69 | 5 | 0.9 | 2.6 | 0.00 | 0.00 | 0.00 | 23 | 827.9 |
| 20260505034604 | 69 | 312 | 2.6 | 6.1 | 0.00 | 0.00 | 0.00 | 23 | 828.0 |
| 20260505034104 | 69 | 316 | 1.7 | 10.4 | 0.00 | 0.00 | 0.00 | 23 | 827.8 |
| 20260505033104 | 69 | 299 | 2.6 | 10.4 | 0.00 | 0.00 | 0.00 | 22 | 827.6 |
| 20260505032604 | 69 | 288 | 3.5 | 11.3 | 0.00 | 0.00 | 0.00 | 22 | 827.6 |
| 20260505032104 | 69 | 268 | 4.3 | 11.3 | 0.00 | 0.00 | 0.00 | 22 | 827.5 |
| 20260505031604 | 69 | 273 | 4.3 | 12.2 | 0.00 | 0.00 | 0.00 | 22 | 827.5 |
| 20260505031104 | 69 | 264 | 4.3 | 11.3 | 0.00 | 0.00 | 0.00 | 22 | 827.5 |
| 20260505030604 | 70 | 275 | 4.3 | 12.2 | 0.00 | 0.00 | 0.00 | 22 | 827.4 |
| 20260505025603 | 70 | 264 | 4.3 | 13.0 | 0.00 | 0.00 | 0.00 | 22 | 827.3 |
| 20260505025104 | 70 | 266 | 5.2 | 11.3 | 0.00 | 0.00 | 0.00 | 21 | 827.2 |
| 20260505024604 | 70 | 268 | 6.1 | 11.3 | 0.00 | 0.00 | 0.00 | 21 | 827.2 |
| 20260505023604 | 71 | 277 | 5.2 | 11.3 | 0.00 | 0.00 | 0.00 | 21 | 827.1 |
| 20260505023104 | 71 | 273 | 4.3 | 10.4 | 0.00 | 0.00 | 0.00 | 20 | 827.0 |
| 20260505022604 | 71 | 267 | 4.3 | 8.7 | 0.00 | 0.00 | 0.00 | 20 | 827.0 |
| 20260505022104 | 71 | 273 | 4.3 | 8.7 | 0.00 | 0.00 | 0.00 | 20 | 827.0 |
| 20260505021604 | 71 | 274 | 2.6 | 8.7 | 0.00 | 0.00 | 0.00 | 20 | 827.0 |
| 20260505020604 | 71 | 271 | 2.6 | 6.1 | 0.00 | 0.00 | 0.00 | 20 | 826.9 |
| 20260505020104 | 71 | 268 | 2.6 | 6.1 | 0.00 | 0.00 | 0.00 | 20 | 826.8 |
| 20260505015603 | 71 | 283 | 3.5 | 7.8 | 0.00 | 0.00 | 0.00 | 20 | 826.8 |
| 20260505014604 | 72 | 270 | 2.6 | 7.0 | 0.00 | 0.00 | 0.00 | 20 | 826.7 |
| 20260505014104 | 72 | 286 | 2.6 | 7.0 | 0.00 | 0.00 | 0.00 | 21 | 826.6 |
| 20260505013604 | 72 | 271 | 1.7 | 5.2 | 0.00 | 0.00 | 0.00 | 20 | 826.5 |
| 20260505013104 | 72 | 269 | 1.7 | 2.6 | 0.00 | 0.00 | 0.00 | 20 | 826.5 |
| 20260505012604 | 72 | 274 | 1.7 | 5.2 | 0.00 | 0.00 | 0.00 | 20 | 826.4 |
| 20260505012104 | 72 | 292 | 1.7 | 4.3 | 0.00 | 0.00 | 0.00 | 20 | 826.4 |
| 20260505011104 | 72 | 282 | 2.6 | 6.1 | 0.00 | 0.00 | 0.00 | 19 | 826.4 |
| 20260505005603 | 73 | 295 | 1.7 | 5.2 | 0.00 | 0.00 | 0.00 | 19 | 826.3 |
| 20260505005104 | 73 | 283 | 0.9 | 6.1 | 0.00 | 0.00 | 0.00 | 18 | 826.3 |
| 20260505004603 | 73 | 307 | 2.6 | 5.2 | 0.00 | 0.00 | 0.00 | 18 | 826.3 |
| 20260505004104 | 73 | 281 | 2.6 | 6.1 | 0.00 | 0.00 | 0.00 | 18 | 826.4 |
| 20260505003603 | 73 | 291 | 1.7 | 7.0 | 0.00 | 0.00 | 0.00 | 18 | 826.4 |
| 20260505003104 | 73 | 268 | 2.6 | 7.0 | 0.00 | 0.00 | 0.00 | 18 | 826.4 |